Location: Arrington
(35.8681°N, 86.7092°W)
Time: 13:07:35
(UTC+00:00)

Cosmos 2219 Rocket - Pass Details

Date: 23 November 2019
Orbit: 827 x 847 km, 71.0° (Epoch: 06 December)

Event Time Altitude Azimuth Distance (km) Brightness Sun altitude
Exits shadow 10:51:55 - 349° (NNW) 3,274 5.0 -19.9°
Reaches altitude 10° 10:54:15 10° 357° (N) 2,469 4.5 -19.4°
Maximum altitude 10:59:21 33° 61° (ENE) 1,377 3.8 -18.4°
Drops below altitude 10° 11:04:25 10° 125° (SE) 2,463 5.7 -17.4°
Sets 11:07:06 0° 135° (SE) 3,396 6.4 -16.8°
